XRISM

Last updated on Thu Oct 30 2025 00:02:16 GMT+0000 (Coordinated Universal Time)

1 57800U 23137A 25301.68613729 .00007741 00000+0 46358-3 0 9996 2 57800 31.0030 56.2766 0008185 150.9279 209.1816 15.09627345117813
UTC large
Height (km)
Speed (km/s)
/
Latitude / Longitude
Inclination (degrees)
Orbital Period (minutes)
Azimuth
Elevation
Range (km)
Doppler Factor

Next 0 passes for location: London (51.5072 / 0.1276)

Sorry there are no passes over London.